Terug naar catalogus

ELECTRON KICK STAGE R/B

ActiefVLEO
NORAD 55908·ROCKET BODY·🇺🇸 United States

Gelanceerd Mar 16, 2023 vanaf Wallops Flight Facility

Loading…

Volgende Passages (komende 24 uur)

TLE

VersSource: Space-Track

Epoch: Sep 14, 2026, 14:16 UTC

1 55908U 23035A   26257.59513580  .00005278  00000-0  31874-3 0  9996
2 55908  44.1762   8.4411 0002150 322.0044  38.0669 15.11674341191897

Volg ELECTRON KICK STAGE R/B in realtime met AllMySat

Download on the App Store